Location: Kolin
(50.0330°N, 15.2000°E)
Time: 07:50:18
(UTC+02:00)

Gurwin Techsat 1B - Pass Details

Date: 18 August 2022
Orbit: 811 x 814 km, 98.8° (Epoch: 25 September)

Event Time Altitude Azimuth Distance (km) Brightness Sun altitude
Rises 03:56:09 0° 14° (NNE) 3,351 12.9 -16.3°
Reaches altitude 10° 03:58:30 10° 14° (NNE) 2,415 12.0 -16.1°
Maximum altitude 04:03:51 83° 287° (WNW) 826 8.6 -15.5°
Enters shadow 04:07:40 20° 201° (SSW) 1,819 9.9 -15.0°
